"Timestamp","TZ","WindDir_Mean (deg)","WindSpd_Mean (km/h)","WindSpd_Min (km/h)","WindSpd_Max (km/h)","Temp_Mean (deg)","RH_Mean (%)","MSLP_Mean (hPa)","Rain_Acc (mm)","Rain_Intensity (mm/h)","Hail_Acc (hits/cm2)","Hail_Intensity (hits/cm2hr)","Solar_Mean (W/m2)"
2020/03/08 00:00:00.016,n,111,2.88,2.16,3.6,23.9,67.1,1016.72,0,0,0,0,0.022621
2020/03/08 00:01:00.000,n,142,12.24,10.8,13.32,23.9,67,1016.72,0,0,0,0,0.024376
2020/03/08 00:02:00.000,n,133,5.04,2.88,7.56,23.9,67.1,1016.82,0,0,0,0,0.025253
2020/03/08 00:03:00.000,n,141,4.68,2.88,7.2,23.8,67.2,1016.72,0,0,0,0,0.022621
2020/03/08 00:04:00.003,n,155,8.28,6.48,9.72,23.8,67,1016.72,0,0,0,0,0.025253
2020/03/08 00:05:00.000,n,150,3.24,0.72,5.76,23.8,67.1,1016.72,0,0,0,0,0.025253
2020/03/08 00:06:00.000,n,139,6.12,5.04,7.2,23.8,67.1,1016.72,0,0,0,0,0.021744
2020/03/08 00:07:00.010,n,161,11.88,10.440002,12.6,23.8,67,1016.72,0,0,0,0,0.020027
2020/03/08 00:08:00.006,n,137,11.52,11.16,11.88,23.8,67.1,1016.72,0,0,0,0,0.026093
2020/03/08 00:09:00.003,n,212,15.84,14.76,17.28,23.8,66.699996,1016.72,0,0,0,0,0.027847
2020/03/08 00:10:00.001,n,125,7.2,6.84,7.92,23.8,66.800004,1016.72,0,0,0,0,0.02697
2020/03/08 00:11:00.000,n,136,7.2,6.12,8.64,23.9,66.800004,1016.62,0,0,0,0,0.027847
2020/03/08 00:12:00.000,n,170,5.04,3.6,5.76,23.9,66.800004,1016.62,0,0,0,0,0.02697
2020/03/08 00:13:00.000,n,150,12.6,11.52,13.68,23.9,66.9,1016.62,0,0,0,0,0.02697
2020/03/08 00:14:00.005,n,187,6.12,4.68,7.92,23.9,66.699996,1016.62,0,0,0,0,0.024376
2020/03/08 00:15:00.002,n,133,10.8,9.72,11.16,23.9,66.699996,1016.62,0,0,0,0,0.024376
2020/03/08 00:16:00.000,n,152,7.92,6.12,9.72,23.8,66.699996,1016.62,0,0,0,0,0.024376
2020/03/08 00:17:00.013,n,178,7.2,4.32,10.440002,23.8,66.9,1016.62,0,0,0,0,0.027847
2020/03/08 00:18:00.010,n,125,8.28,7.56,8.64,23.9,66.9,1016.62,0,0,0,0,0.026093
2020/03/08 00:19:00.000,n,114,4.68,3.24,6.12,23.8,67.1,1016.62,0,0,0,0,0.026093
2020/03/08 00:20:00.000,n,181,3.96,3.24,4.32,23.8,67.1,1016.52,0,0,0,0,0.023499
2020/03/08 00:21:00.002,n,139,14.4,12.24,16.56,23.8,66.800004,1016.52,0,0,0,0,0.028725
2020/03/08 00:22:00.000,n,122,3.6,1.44,4.68,23.8,66.9,1016.52,0,0,0,0,0.024376
2020/03/08 00:23:00.000,n,142,6.12,3.96,7.56,23.8,66.9,1016.52,0,0,0,0,0.027847
2020/03/08 00:24:00.008,n,156,13.32,12.96,14.4,23.8,66.5,1016.52,0,0,0,0,0.02697
2020/03/08 00:25:00.005,n,124,11.88,10.8,12.6,23.8,66.4,1016.52,0,0,0,0,0.027847
2020/03/08 00:26:00.002,n,158,7.56,4.68,8.64,23.8,66.699996,1016.52,0,0,0,0,0.027847
2020/03/08 00:27:00.000,n,125,9.36,7.2,11.16,23.8,66.6,1016.42,0,0,0,0,0.026093
2020/03/08 00:28:00.000,n,167,7.56,6.12,8.28,23.8,66.699996,1016.42,0,0,0,0,0.025253
2020/03/08 00:29:00.000,n,145,7.92,5.4,9,23.8,66.5,1016.42,0,0,0,0,0.024376
2020/03/08 00:30:00.000,n,152,19.44,14.4,21.599998,23.8,66.4,1016.42,0,0,0,0,0.028725
2020/03/08 00:31:00.005,n,131,13.68,11.16,15.48,23.8,66.199996,1016.42,0,0,0,0,0.022621
2020/03/08 00:32:00.002,n,333,1.08,0.72,1.44,23.8,66.300004,1016.42,0,0,0,0,0.023499
2020/03/08 00:33:00.000,n,209,5.04,4.68,5.4,23.8,66.5,1016.42,0,0,0,0,0.026093
2020/03/08 00:34:00.000,n,154,3.24,2.52,4.32,23.8,66.4,1016.42,0,0,0,0,0.021744
2020/03/08 00:35:00.009,n,181,7.92,7.56,8.28,23.8,66.300004,1016.42,0,0,0,0,0.025253
2020/03/08 00:36:00.007,n,131,6.48,5.76,8.64,23.8,66.300004,1016.42,0,0,0,0,0.025253
2020/03/08 00:37:00.000,n,155,11.16,9.72,11.52,23.8,66.300004,1016.42,0,0,0,0,0.037422
2020/03/08 00:38:00.002,n,144,10.8,9,11.88,23.8,66.1,1016.32,0,0,0,0,0.027847
2020/03/08 00:39:00.000,n,148,10.08,9,11.52,23.8,66.199996,1016.42,0,0,0,0,0.02697
2020/03/08 00:40:00.000,n,122,6.48,5.04,8.64,23.8,66.199996,1016.42,0,0,0,0,0.025253
2020/03/08 00:41:00.000,n,143,11.88,10.440002,13.68,23.8,66,1016.42,0,0,0,0,0.023499
2020/03/08 00:42:00.006,n,181,13.68,11.52,15.84,23.8,66,1016.32,0,0,0,0,0.023499
2020/03/08 00:43:00.004,n,159,18,16.2,19.8,23.8,65.9,1016.32,0,0,0,0,0.023499
2020/03/08 00:44:00.000,n,166,5.04,2.16,7.92,23.8,66,1016.32,0,0,0,0,0.025253
2020/03/08 00:45:00.013,n,160,12.96,11.16,14.4,23.8,65.9,1016.32,0,0,0,0,0.02697
2020/03/08 00:46:00.000,n,136,6.84,5.76,7.56,23.8,66,1016.32,0,0,0,0,0.024376
2020/03/08 00:47:00.000,n,96,3.24,2.52,3.6,23.9,66.1,1016.32,0,0,0,0,0.029602
2020/03/08 00:48:00.005,n,104,2.88,1.8,3.96,23.8,66,1016.22,0,0,0,0,0.023499
2020/03/08 00:49:00.002,n,138,4.32,3.24,5.76,23.8,66,1016.32,0,0,0,0,0.025253
2020/03/08 00:50:00.000,n,207,5.4,2.16,6.84,23.8,66,1016.22,0,0,0,0,0.021744
2020/03/08 00:51:00.000,n,133,6.12,5.4,6.84,23.8,65.9,1016.22,0,0,0,0,0.025253
2020/03/08 00:52:00.009,n,161,10.08,6.84,15.12,23.8,65.699996,1016.22,0,0,0,0,0.021744
2020/03/08 00:53:00.006,n,173,6.12,5.76,6.84,23.8,65.800004,1016.22,0,0,0,0,0.02697
2020/03/08 00:54:00.003,n,150,7.92,6.48,8.64,23.8,65.9,1016.22,0,0,0,0,0.025253
2020/03/08 00:55:00.001,n,127,7.92,6.84,9.36,23.8,65.699996,1016.22,0,0,0,0,0.024376
2020/03/08 00:56:00.000,n,131,6.84,5.76,7.56,23.8,65.699996,1016.22,0,0,0,0,0.028725
2020/03/08 00:57:00.000,n,154,10.08,9.72,11.16,23.8,65.6,1016.22,0,0,0,0,0.022621
2020/03/08 00:58:00.000,n,152,16.2,15.48,18.359998,23.8,65.6,1016.22,0,0,0,0,0.027847
2020/03/08 00:59:00.004,n,133,10.08,9,10.8,23.8,65.6,1016.22,0,0,0,0,0.024376
2020/03/08 01:00:00.002,n,110,5.76,5.04,6.48,23.8,65.699996,1016.22,0,0,0,0,0.02697
2020/03/08 01:01:00.000,n,140,6.48,1.8,10.440002,23.8,65.6,1016.22,0,0,0,0,0.023499
2020/03/08 01:02:00.011,n,253,3.96,0.36,7.92,23.8,65.5,1016.22,0,0,0,0,0.02697
2020/03/08 01:03:00.008,n,124,6.12,4.68,7.2,23.8,65.4,1016.22,0,0,0,0,0.020027
2020/03/08 01:04:00.000,n,165,4.32,2.88,8.28,23.8,65.5,1016.22,0,0,0,0,0.024376
2020/03/08 01:05:00.002,n,146,10.08,8.64,11.52,23.8,65.4,1016.22,0,0,0,0,0.025253
2020/03/08 01:06:00.000,n,195,15.48,14.04,17.64,23.8,65.4,1016.12,0,0,0,0,0.026093
2020/03/08 01:07:00.000,n,133,7.2,6.48,8.28,23.8,65.5,1016.22,0,0,0,0,0.022621
2020/03/08 01:08:00.000,n,150,6.48,5.04,7.2,23.8,65.4,1016.22,0,0,0,0,0.020866
2020/03/08 01:09:00.008,n,125,6.48,5.4,7.2,23.8,65.6,1016.22,0,0,0,0,0.02697
2020/03/08 01:10:00.006,n,141,11.52,8.64,14.04,23.8,65.4,1016.22,0,0,0,0,0.022621
2020/03/08 01:11:00.003,n,132,9,7.56,10.440002,23.8,65.4,1016.22,0,0,0,0,0.021744
2020/03/08 01:12:00.001,n,151,15.48,12.6,18.359998,23.8,65.300004,1016.12,0,0,0,0,0.022621
2020/03/08 01:13:00.000,n,157,11.52,6.84,14.04,23.8,65.300004,1016.12,0,0,0,0,0.023499
2020/03/08 01:14:00.000,n,201,6.12,2.52,9.36,23.8,64.9,1016.02,0,0,0,0,0.02697
2020/03/08 01:15:00.000,n,165,14.04,12.24,16.2,23.8,65,1016.02,0,0,0,0,0.024376
2020/03/08 01:16:00.005,n,153,17.64,14.4,22.319998,23.8,64.699996,1016.02,0,0,0,0,0.024376
2020/03/08 01:17:00.003,n,186,11.52,9.72,14.4,23.8,64.699996,1016.02,0,0,0,0,0.025253
2020/03/08 01:18:00.000,n,157,14.04,10.8,16.919998,23.8,64.5,1016.02,0,0,0,0,0.024376
2020/03/08 01:19:00.000,n,133,6.12,4.68,7.92,23.8,64.5,1016.02,0,0,0,0,0.023499
2020/03/08 01:20:00.009,n,132,10.8,8.28,12.96,23.8,64.6,1016.02,0,0,0,0,0.024376
2020/03/08 01:21:00.006,n,124,10.8,8.64,12.96,23.8,64.6,1016.02,0,0,0,0,0.024376
2020/03/08 01:22:00.000,n,105,12.96,10.440002,16.2,23.8,64.5,1016.02,0,0,0,0,0.023499
2020/03/08 01:23:00.000,n,139,16.2,15.12,18,23.8,64.5,1015.92,0,0,0,0,0.025253
2020/03/08 01:24:00.000,n,163,7.56,7.2,8.64,23.8,64.699996,1016.02,0,0,0,0,0.02697
2020/03/08 01:25:00.000,n,134,7.92,5.76,9.72,23.8,64.5,1016.02,0,0,0,0,0.020866
2020/03/08 01:26:00.008,n,123,4.68,1.8,6.84,23.8,64.5,1016.02,0,0,0,0,0.018272
2020/03/08 01:27:00.006,n,131,10.08,8.64,11.88,23.8,64.4,1016.02,0,0,0,0,0.023499
2020/03/08 01:28:00.003,n,148,7.56,5.4,8.64,23.8,64.300004,1016.02,0,0,0,0,0.01564
2020/03/08 01:29:00.000,n,148,10.08,9,11.52,23.8,64.4,1015.92,0,0,0,0,0.018272
2020/03/08 01:30:00.014,n,175,17.28,11.16,21.96,23.8,63.8,1015.92,0,0,0,0,0.01915
2020/03/08 01:31:00.000,n,144,6.12,5.04,7.56,23.8,63.9,1015.92,0,0,0,0,0.020866
2020/03/08 01:32:00.000,n,149,9,4.68,11.88,23.8,64.1,1016.02,0,0,0,0,0.020866
2020/03/08 01:33:00.000,n,144,17.28,15.48,21.24,23.8,63.9,1015.92,0,0,0,0,0.020866
2020/03/08 01:34:00.002,n,135,11.88,8.64,13.32,23.8,64,1015.92,0,0,0,0,0.021744
2020/03/08 01:35:00.000,n,137,4.32,2.52,6.12,23.8,64.1,1015.92,0,0,0,0,0.020027
2020/03/08 01:36:00.000,n,146,7.92,5.76,8.64,23.8,64,1015.92,0,0,0,0,0.01915
2020/03/08 01:37:00.010,n,134,9.72,7.92,10.8,23.8,64.1,1015.92,0,0,0,0,0.024376
2020/03/08 01:38:00.007,n,149,8.28,5.76,11.52,23.8,63.8,1015.92,0,0,0,0,0.020027
2020/03/08 01:39:00.003,n,136,7.2,3.6,9.72,23.7,63.9,1015.92,0,0,0,0,0.018272
2020/03/08 01:40:00.002,n,175,8.28,4.68,9.72,23.8,63.9,1015.92,0,0,0,0,0.023499
2020/03/08 01:41:00.000,n,286,1.8,1.08,2.88,23.8,63.9,1015.92,0,0,0,0,0.03479
2020/03/08 01:42:00.000,n,140,4.32,0.72,6.48,23.7,64,1015.92,0,0,0,0,0.035667
2020/03/08 01:43:00.006,n,155,11.52,10.08,15.48,23.7,64,1015.92,0,0,0,0,0.035667
2020/03/08 01:44:00.003,n,166,15.12,14.04,15.84,23.7,63.2,1015.82,0,0,0,0,0.03479
2020/03/08 01:45:00.000,n,148,13.32,11.88,15.84,23.7,63.3,1015.82,0,0,0,0,0.029564
2020/03/08 01:46:00.000,n,148,11.52,9.72,13.68,23.7,63.3,1015.72,0,0,0,0,0.031357
2020/03/08 01:47:00.011,n,179,11.52,8.64,14.76,23.7,63.2,1015.72,0,0,0,0,0.035667
2020/03/08 01:48:00.009,n,146,10.440002,9.36,10.8,23.7,63.4,1015.82,0,0,0,0,0.036583
2020/03/08 01:49:00.000,n,147,6.84,3.6,8.64,23.7,63.4,1015.82,0,0,0,0,0.0383
2020/03/08 01:50:00.003,n,126,7.2,0.72,12.24,23.7,63.3,1015.82,0,0,0,0,0.033951
2020/03/08 01:51:00.000,n,136,3.24,1.08,6.48,23.7,63.1,1015.72,0,0,0,0,0.033073
2020/03/08 01:52:00.000,n,152,7.92,4.68,9,23.7,63.2,1015.82,0,0,0,0,0.033951
2020/03/08 01:53:00.000,n,150,21.599998,20.16,23.04,23.7,62.6,1015.72,0,0,0,0,0.032196
2020/03/08 01:54:00.007,n,114,4.68,1.8,9,23.7,62.9,1015.72,0,0,0,0,0.035667
2020/03/08 01:55:00.004,n,127,5.76,5.4,6.48,23.7,63.1,1015.72,0,0,0,0,0.029564
2020/03/08 01:56:00.001,n,180,10.08,7.92,11.52,23.7,63.2,1015.72,0,0,0,0,0.030441
2020/03/08 01:57:00.014,n,162,14.04,13.32,15.48,23.7,63.1,1015.72,0,0,0,0,0.030441
2020/03/08 01:58:00.000,n,111,8.28,4.68,10.8,23.7,63.1,1015.72,0,0,0,0,0.033073
2020/03/08 01:59:00.000,n,144,8.64,7.2,9,23.7,62.9,1015.72,0,0,0,0,0.033951
2020/03/08 02:00:00.000,n,140,6.12,5.04,8.28,23.7,63.2,1015.72,0,0,0,0,0.032196
2020/03/08 02:01:00.003,n,283,1.44,0.72,3.6,23.7,63.4,1015.72,0,0,0,0,0.030441
2020/03/08 02:02:00.001,n,149,12.96,11.88,14.76,23.7,63.3,1015.72,0,0,0,0,0.033073
2020/03/08 02:03:00.000,n,149,7.92,6.12,9,23.7,63.3,1015.62,0,0,0,0,0.033951
2020/03/08 02:04:00.011,n,118,8.64,8.28,9.72,23.6,63.4,1015.62,0,0,0,0,0.032196
2020/03/08 02:05:00.008,n,151,7.2,5.76,7.92,23.6,63.4,1015.62,0,0,0,0,0.030441
2020/03/08 02:06:00.005,n,172,2.88,1.44,4.32,23.6,63.5,1015.62,0,0,0,0,0.036583
2020/03/08 02:07:00.000,n,179,15.12,14.04,16.2,23.6,63.3,1015.62,0,0,0,0,0.031357
2020/03/08 02:08:00.000,n,129,11.52,10.8,12.96,23.6,63.3,1015.52,0,0,0,0,0.032196
2020/03/08 02:09:00.000,n,138,13.32,11.16,15.48,23.6,63.4,1015.52,0,0,0,0,0.033073
2020/03/08 02:10:00.000,n,141,8.64,3.6,14.4,23.6,63.3,1015.52,0,0,0,0,0.029564
2020/03/08 02:11:00.006,n,125,7.56,6.12,8.64,23.6,63.4,1015.62,0,0,0,0,0.031357
2020/03/08 02:12:00.004,n,99,5.76,5.4,6.12,23.6,63.5,1015.62,0,0,0,0,0.033073
2020/03/08 02:13:00.001,n,171,6.84,5.76,8.28,23.6,63.5,1015.52,0,0,0,0,0.02697
2020/03/08 02:14:00.000,n,157,10.08,7.56,14.04,23.6,63.1,1015.52,0,0,0,0,0.03479
2020/03/08 02:15:00.012,n,146,15.84,2.52,18.72,23.6,62.8,1015.42,0,0,0,0,0.029564
2020/03/08 02:16:00.000,n,170,10.440002,9.36,11.88,23.6,62.9,1015.52,0,0,0,0,0.033951
2020/03/08 02:17:00.000,n,151,10.440002,3.96,12.96,23.6,63.1,1015.52,0,0,0,0,0.029564
2020/03/08 02:18:00.004,n,145,4.32,3.24,5.76,23.6,63.1,1015.52,0,0,0,0,0.027847
2020/03/08 02:19:00.001,n,148,3.6,2.52,4.32,23.6,63.2,1015.52,0,0,0,0,0.033073
2020/03/08 02:20:00.000,n,144,19.44,17.28,20.519998,23.6,62.9,1015.42,0,0,0,0,0.031357
2020/03/08 02:21:00.000,n,137,16.56,14.76,18,23.6,62.6,1015.42,0,0,0,0,0.031357
2020/03/08 02:22:00.008,n,125,4.68,1.8,6.48,23.6,62.9,1015.52,0,0,0,0,0.023499
2020/03/08 02:23:00.005,n,163,6.12,5.4,7.2,23.6,63,1015.42,0,0,0,0,0.032196
2020/03/08 02:24:00.002,n,113,4.32,2.88,5.04,23.6,63.1,1015.42,0,0,0,0,0.029564
2020/03/08 02:25:00.001,n,165,10.8,8.64,11.52,23.6,63,1015.42,0,0,0,0,0.023499
2020/03/08 02:26:00.000,n,151,14.76,12.24,15.84,23.6,63,1015.42,0,0,0,0,0.025215
2020/03/08 02:27:00.000,n,174,9.72,6.12,14.76,23.6,63.2,1015.42,0,0,0,0,0.032196
2020/03/08 02:28:00.007,n,186,9,7.92,10.440002,23.6,63,1015.42,0,0,0,0,0.029564
2020/03/08 02:29:00.004,n,142,6.48,5.4,7.56,23.6,63.1,1015.42,0,0,0,0,0.028725
2020/03/08 02:30:00.000,n,148,8.64,7.2,11.52,23.6,63,1015.42,0,0,0,0,0.028725
2020/03/08 02:31:00.000,n,144,10.440002,9.72,12.24,23.6,62.9,1015.42,0,0,0,0,0.033073
2020/03/08 02:32:00.011,n,185,7.56,7.2,9.36,23.6,62.9,1015.42,0,0,0,0,0.027847
2020/03/08 02:33:00.009,n,130,8.64,7.2,9.36,23.6,63,1015.42,0,0,0,0,0.024376
2020/03/08 02:34:00.000,n,178,3.24,1.8,4.68,23.6,63.1,1015.42,0,0,0,0,0.022621
2020/03/08 02:35:00.002,n,249,1.44,0.72,3.96,23.6,63.1,1015.42,0,0,0,0,0.024376
2020/03/08 02:36:00.000,n,128,4.32,3.96,5.76,23.6,63.2,1015.42,0,0,0,0,0.027847
2020/03/08 02:37:00.000,n,124,3.96,3.6,5.04,23.6,63.4,1015.42,0,0,0,0,0.029564
2020/03/08 02:38:00.000,n,71,2.16,0.72,2.88,23.5,63.1,1015.42,0,0,0,0,0.028725
2020/03/08 02:39:00.006,n,158,7.56,1.8,10.08,23.5,63.2,1015.42,0,0,0,0,0.025215
2020/03/08 02:40:00.003,n,110,6.84,6.12,7.56,23.5,63.1,1015.42,0,0,0,0,0.029564
2020/03/08 02:41:00.000,n,117,3.24,2.52,5.04,23.5,63.2,1015.32,0,0,0,0,0.030441
2020/03/08 02:42:00.014,n,156,9,5.04,10.440002,23.5,63.5,1015.32,0,0,0,0,0.030441
2020/03/08 02:43:00.000,n,177,9,7.92,10.440002,23.5,63.3,1015.32,0,0,0,0,0.025215
2020/03/08 02:44:00.000,n,162,20.519998,17.28,23.4,23.5,63.2,1015.32,0,0,0,0,0.032196
2020/03/08 02:45:00.000,n,152,14.4,13.68,15.12,23.5,63.3,1015.32,0,0,0,0,0.024376
2020/03/08 02:46:00.002,n,150,9,8.28,10.08,23.4,63.5,1015.32,0,0,0,0,0.027847
2020/03/08 02:47:00.000,n,168,5.04,3.96,6.48,23.4,63.5,1015.32,0,0,0,0,0.027847
2020/03/08 02:48:00.000,n,161,11.52,6.48,14.04,23.4,63.5,1015.22,0,0,0,0,0.028725
2020/03/08 02:49:00.010,n,139,15.48,14.04,16.2,23.4,63.3,1015.22,0,0,0,0,0.027847
2020/03/08 02:50:00.008,n,162,7.92,6.48,9.36,23.4,63.5,1015.22,0,0,0,0,0.025215
2020/03/08 02:51:00.005,n,136,6.12,3.24,7.2,23.4,63.6,1015.22,0,0,0,0,0.028725
2020/03/08 02:52:00.000,n,154,18,14.04,21.599998,23.4,63.3,1015.22,0,0,0,0,0.032196
2020/03/08 02:53:00.000,n,151,9.36,7.56,10.8,23.4,63.4,1015.22,0,0,0,0,0.033112
2020/03/08 02:54:00.000,n,147,9.72,9,10.8,23.4,63.5,1015.22,0,0,0,0,0.033951
2020/03/08 02:55:00.000,n,167,6.84,3.96,7.92,23.4,63.5,1015.32,0,0,0,0,0.030479
2020/03/08 02:56:00.007,n,114,6.48,5.4,7.92,23.3,63.6,1015.32,0,0,0,0,0.029602
2020/03/08 02:57:00.005,n,146,10.08,9.36,10.440002,23.3,63.5,1015.32,0,0,0,0,0.032196
2020/03/08 02:58:00.001,n,156,10.08,9,11.88,23.3,63.5,1015.32,0,0,0,0,0.031357
2020/03/08 02:59:00.000,n,203,3.96,1.08,7.92,23.3,63.5,1015.32,0,0,0,0,0.032196
2020/03/08 03:00:00.011,n,159,9.36,8.28,10.08,23.3,63.5,1015.32,0,0,0,0,0.032196
2020/03/08 03:01:00.000,n,316,2.16,0.72,5.4,23.3,63.7,1015.32,0,0,0,0,0.035706
2020/03/08 03:02:00.000,n,136,7.92,6.84,8.28,23.3,63.4,1015.32,0,0,0,0,0.033951
2020/03/08 03:03:00.002,n,126,5.04,3.96,6.12,23.3,63.6,1015.32,0,0,0,0,0.031357
2020/03/08 03:04:00.000,n,141,7.92,7.2,9,23.3,63.6,1015.32,0,0,0,0,0.030479
2020/03/08 03:05:00.000,n,149,7.92,6.48,9,23.3,63.4,1015.22,0,0,0,0,0.032196
2020/03/08 03:06:00.009,n,141,9.72,7.56,10.8,23.3,63.4,1015.22,0,0,0,0,0.02697
2020/03/08 03:07:00.006,n,130,5.04,3.6,6.84,23.3,63.5,1015.32,0,0,0,0,0.033951
2020/03/08 03:08:00.004,n,126,4.68,3.96,5.76,23.4,63.5,1015.32,0,0,0,0,0.034828
2020/03/08 03:09:00.002,n,118,3.24,2.88,3.6,23.4,63.6,1015.32,0,0,0,0,0.031357
2020/03/08 03:10:00.001,n,158,7.56,7.2,7.92,23.4,63.4,1015.22,0,0,0,0,0.035706
2020/03/08 03:11:00.000,n,185,2.16,0.72,2.88,23.4,63.4,1015.22,0,0,0,0,0.031357
2020/03/08 03:12:00.000,n,142,7.92,6.84,9.36,23.4,63.1,1015.22,0,0,0,0,0.033112
2020/03/08 03:13:00.000,n,143,14.04,10.440002,14.76,23.4,62.9,1015.22,0,0,0,0,0.033112
2020/03/08 03:14:00.005,n,137,9.36,8.64,10.440002,23.4,62.9,1015.22,0,0,0,0,0.031357
2020/03/08 03:15:00.002,n,146,7.92,7.2,9.36,23.4,63.1,1015.22,0,0,0,0,0.033112
2020/03/08 03:16:00.000,n,129,7.56,4.68,9.72,23.4,62.7,1015.22,0,0,0,0,0.034828
2020/03/08 03:17:00.013,n,151,10.8,9.36,11.52,23.4,62.7,1015.32,0,0,0,0,0.034828
2020/03/08 03:18:00.010,n,131,7.56,6.48,8.64,23.4,62.8,1015.32,0,0,0,0,0.033112
2020/03/08 03:19:00.000,n,139,6.48,6.12,6.84,23.4,62.9,1015.22,0,0,0,0,0.031357
2020/03/08 03:20:00.000,n,171,2.88,2.52,3.6,23.4,62.9,1015.32,0,0,0,0,0.033112
2020/03/08 03:21:00.001,n,109,5.76,3.24,7.2,23.4,62.6,1015.32,0,0,0,0,0.032196
2020/03/08 03:22:00.000,n,174,6.12,5.4,7.56,23.4,62.7,1015.32,0,0,0,0,0.033951
2020/03/08 03:23:00.000,n,153,4.32,1.8,6.12,23.4,62.6,1015.32,0,0,0,0,0.034828
2020/03/08 03:24:00.008,n,142,6.48,5.4,8.28,23.4,62.6,1015.32,0,0,0,0,0.028763
2020/03/08 03:25:00.005,n,159,5.76,4.68,6.48,23.4,62.6,1015.32,0,0,0,0,0.033951
2020/03/08 03:26:00.002,n,124,9,6.48,10.440002,23.4,62.5,1015.42,0,0,0,0,0.035706
2020/03/08 03:27:00.000,n,165,5.76,5.4,6.48,23.4,62.2,1015.42,0,0,0,0,0.038338
2020/03/08 03:28:00.000,n,71,1.8,0.36,3.24,23.4,62.5,1015.42,0,0,0,0,0.033951
2020/03/08 03:29:00.000,n,153,6.12,5.4,7.92,23.4,62.4,1015.32,0,0,0,0,0.030479
2020/03/08 03:30:00.000,n,128,6.48,4.32,8.28,23.4,61.5,1015.32,0,0,0,0,0.035706
2020/03/08 03:31:00.004,n,136,12.96,11.88,13.32,23.4,61.7,1015.32,0,0,0,0,0.032196
2020/03/08 03:32:00.002,n,187,14.04,12.96,14.76,23.5,61.6,1015.32,0,0,0,0,0.030479
2020/03/08 03:33:00.000,n,139,9.36,8.28,10.08,23.5,61.6,1015.32,0,0,0,0,0.034828
2020/03/08 03:34:00.000,n,182,3.96,0.72,6.84,23.5,61.6,1015.32,0,0,0,0,0.030479
2020/03/08 03:35:00.010,n,154,7.56,5.76,8.28,23.5,61.6,1015.32,0,0,0,0,0.036545
2020/03/08 03:36:00.007,n,161,11.88,6.84,13.32,23.5,61.4,1015.32,0,0,0,0,0.037422
2020/03/08 03:37:00.000,n,111,2.88,2.52,3.6,23.5,61.6,1015.32,0,0,0,0,0.035706
2020/03/08 03:38:00.000,n,33,5.76,4.68,6.84,23.5,61.7,1015.32,0,0,0,0,0.036545
2020/03/08 03:39:00.000,n,151,6.12,5.04,7.2,23.5,61.6,1015.32,0,0,0,0,0.034828
2020/03/08 03:40:00.000,n,143,8.64,7.2,9.72,23.5,61.4,1015.32,0,0,0,0,0.035706
2020/03/08 03:41:00.007,n,195,2.52,1.44,3.24,23.5,61.4,1015.32,0,0,0,0,0.036545
2020/03/08 03:42:00.005,n,98,3.24,3.24,3.6,23.5,61.8,1015.32,0,0,0,0,0.034828
2020/03/08 03:43:00.002,n,142,7.2,6.48,7.92,23.5,61.5,1015.32,0,0,0,0,0.027885
2020/03/08 03:44:00.000,n,194,3.24,0.72,7.56,23.5,61.3,1015.32,0,0,0,0,0.033951
2020/03/08 03:45:00.013,n,151,8.64,7.92,10.440002,23.5,61.1,1015.32,0,0,0,0,0.036545
2020/03/08 03:46:00.000,n,164,6.48,5.04,7.2,23.5,61,1015.32,0,0,0,0,0.038338
2020/03/08 03:47:00.000,n,157,12.6,10.8,14.76,23.5,60.6,1015.32,0,0,0,0,0.038338
2020/03/08 03:48:00.004,n,102,7.2,5.76,7.92,23.5,60.5,1015.32,0,0,0,0,0.035706
2020/03/08 03:49:00.002,n,118,5.76,4.68,7.56,23.5,60.6,1015.32,0,0,0,0,0.035706
2020/03/08 03:50:00.000,n,128,7.56,6.84,8.28,23.5,60.5,1015.32,0,0,0,0,0.033951
2020/03/08 03:51:00.000,n,182,6.48,5.4,6.84,23.5,60.6,1015.32,0,0,0,0,0.035706
2020/03/08 03:52:00.010,n,129,4.68,2.52,6.84,23.5,60.5,1015.22,0,0,0,0,0.034828
2020/03/08 03:53:00.007,n,162,4.68,3.24,5.4,23.5,60.4,1015.22,0,0,0,0,0.034828
2020/03/08 03:54:00.005,n,200,7.56,3.24,9,23.5,60.4,1015.22,0,0,0,0,0.037422
2020/03/08 03:55:00.002,n,173,8.28,6.84,9,23.4,60.5,1015.22,0,0,0,0,0.036545
2020/03/08 03:56:00.000,n,122,5.04,3.96,6.84,23.4,60.6,1015.22,0,0,0,0,0.033951
2020/03/08 03:57:00.000,n,187,9.72,5.76,12.6,23.4,60.1,1015.12,0,0,0,0,0.032196
2020/03/08 03:58:00.000,n,141,11.88,10.8,13.68,23.4,59.9,1015.22,0,0,0,0,0.035706
2020/03/08 03:59:00.006,n,116,8.28,6.84,10.08,23.4,60.2,1015.22,0,0,0,0,0.029602
2020/03/08 04:00:00.003,n,233,7.2,6.48,8.28,23.4,59.9,1015.22,0,0,0,0,0.032196
2020/03/08 04:01:00.000,n,165,15.48,14.04,16.919998,23.4,59.9,1015.22,0,0,0,0,0.036545
2020/03/08 04:02:00.014,n,145,7.92,5.76,9.72,23.4,60.2,1015.32,0,0,0,0,0.036545
2020/03/08 04:03:00.011,n,182,10.8,9,11.16,23.4,59.9,1015.32,0,0,0,0,0.029602
2020/03/08 04:04:00.000,n,153,6.48,6.12,7.56,23.3,59.9,1015.32,0,0,0,0,0.036545
2020/03/08 04:05:00.000,n,154,5.76,4.68,6.48,23.3,59.9,1015.32,0,0,0,0,0.033951
2020/03/08 04:06:00.001,n,142,5.4,3.6,6.48,23.3,59.9,1015.32,0,0,0,0,0.038338
2020/03/08 04:07:00.000,n,142,4.32,3.96,5.04,23.3,60.2,1015.32,0,0,0,0,0.034828
2020/03/08 04:08:00.000,n,148,10.08,7.92,12.6,23.3,60.1,1015.32,0,0,0,0,0.036545
2020/03/08 04:09:00.009,n,138,4.68,3.96,5.4,23.3,60.3,1015.32,0,0,0,0,0.033112
2020/03/08 04:10:00.006,n,121,5.4,4.68,5.76,23.3,60.5,1015.32,0,0,0,0,0.038338
2020/03/08 04:11:00.003,n,159,7.56,5.4,10.08,23.3,60.6,1015.32,0,0,0,0,0.034828
2020/03/08 04:12:00.001,n,143,12.24,11.52,13.68,23.2,60.6,1015.32,0,0,0,0,0.035706
2020/03/08 04:13:00.000,n,138,9.36,5.4,11.88,23.2,60.2,1015.22,0,0,0,0,0.033951
2020/03/08 04:14:00.000,n,118,2.16,0.72,3.96,23.2,60.4,1015.22,0,0,0,0,0.027885
2020/03/08 04:15:00.000,n,139,9,5.76,12.24,23.2,60.5,1015.22,0,0,0,0,0.033951
2020/03/08 04:16:00.005,n,148,9,7.92,10.8,23.2,60.1,1015.22,0,0,0,0,0.025253
2020/03/08 04:17:00.003,n,199,1.8,0.36,3.96,23.2,60.2,1015.22,0,0,0,0,0.032196
2020/03/08 04:18:00.000,n,38,2.16,0.72,3.6,23.2,60.2,1015.22,0,0,0,0,0.031357
2020/03/08 04:19:00.000,n,149,5.4,1.44,6.48,23.2,60,1015.22,0,0,0,0,0.032196
2020/03/08 04:20:00.009,n,121,5.76,4.32,7.2,23.2,60.1,1015.22,0,0,0,0,0.027885
2020/03/08 04:21:00.006,n,128,5.76,3.96,7.2,23.2,60.1,1015.22,0,0,0,0,0.029602
2020/03/08 04:22:00.000,n,130,11.52,10.8,12.96,23.2,60.1,1015.22,0,0,0,0,0.035706
2020/03/08 04:23:00.000,n,47,1.44,0.72,2.52,23.2,60.3,1015.22,0,0,0,0,0.032196
2020/03/08 04:24:00.000,n,148,2.88,0.72,4.32,23.2,60.3,1015.22,0,0,0,0,0.032196
2020/03/08 04:25:00.000,n,147,7.92,5.76,10.08,23.2,59.9,1015.22,0,0,0,0,0.030479
2020/03/08 04:26:00.008,n,165,3.96,3.6,4.68,23.2,60.1,1015.22,0,0,0,0,0.031357
2020/03/08 04:27:00.005,n,170,11.16,10.8,11.88,23.2,60,1015.22,0,0,0,0,0.027885
2020/03/08 04:28:00.001,n,162,2.16,1.8,2.52,23.2,60.2,1015.22,0,0,0,0,0.029602
2020/03/08 04:29:00.000,n,155,8.28,6.84,9,23.2,60,1015.22,0,0,0,0,0.027885
2020/03/08 04:30:00.013,n,144,15.48,12.6,16.919998,23.2,59.3,1015.22,0,0,0,0,0.029602
2020/03/08 04:31:00.000,n,174,9,6.84,11.52,23.2,59.3,1015.22,0,0,0,0,0.02697
2020/03/08 04:32:00.000,n,133,5.76,4.32,6.84,23.2,59.7,1015.32,0,0,0,0,0.022659
2020/03/08 04:33:00.000,n,137,5.76,3.96,6.84,23.2,59.6,1015.32,0,0,0,0,0.027885
2020/03/08 04:34:00.002,n,133,3.6,3.24,5.4,23.2,59.7,1015.42,0,0,0,0,0.02697
2020/03/08 04:35:00.000,n,142,7.92,6.84,9,23.2,59.6,1015.42,0,0,0,0,0.030479
2020/03/08 04:36:00.000,n,168,3.96,3.24,4.68,23.2,59.9,1015.42,0,0,0,0,0.027885
2020/03/08 04:37:00.010,n,192,6.12,5.4,7.2,23.2,59.8,1015.42,0,0,0,0,0.028763
2020/03/08 04:38:00.006,n,147,4.68,4.32,5.04,23.2,59.3,1015.42,0,0,0,0,0.026131
2020/03/08 04:39:00.004,n,176,4.32,3.96,5.4,23.2,59.6,1015.42,0,0,0,0,0.029602
2020/03/08 04:40:00.001,n,108,2.88,1.8,3.6,23.2,59.6,1015.42,0,0,0,0,0.028763
2020/03/08 04:41:00.000,n,212,6.12,5.76,6.84,23.2,59.8,1015.42,0,0,0,0,0.025253
2020/03/08 04:42:00.000,n,32,2.52,1.44,3.96,23.2,59.5,1015.42,0,0,0,0,0.030479
2020/03/08 04:43:00.000,n,125,6.12,4.68,7.56,23.2,59.4,1015.42,0,0,0,0,0.028763
2020/03/08 04:44:00.004,n,156,1.8,1.08,2.52,23.2,59.4,1015.52,0,0,0,0,0.028763
2020/03/08 04:45:00.001,n,167,4.68,3.24,5.76,23.2,59.3,1015.42,0,0,0,0,0.025253
2020/03/08 04:46:00.000,n,157,11.52,8.64,14.4,23.2,59.1,1015.42,0,0,0,0,0.02697
2020/03/08 04:47:00.011,n,146,4.68,3.6,6.12,23.2,59.1,1015.42,0,0,0,0,0.027885
2020/03/08 04:48:00.010,n,185,5.4,4.68,6.48,23.2,59.2,1015.42,0,0,0,0,0.02697
2020/03/08 04:49:00.000,n,146,14.04,12.24,15.12,23.2,58.9,1015.42,0,0,0,0,0.027885